sat.trackr.live / text

‹ back to catalog

GNOMES-3

NORAD 52158 · 2022-033B

PAYLOAD ACTIVE UNKNOWN

§ Identity

Operator
Country
US
Launch date
2022-04-01
Launch site
AFETR
Launch vehicle
Mass (kg)
RCS (m²)

External: N2YO · Heavens-Above · Gunter

§ Orbital elements

Epoch: 2026-09-20T00:41:18.844512Z

Period
96.95 min
Inclination
97.8159°
Eccentricity
0.0011104
Mean motion
14.85363152 rev/d
Perigee alt
604.7 km
Apogee alt
620.2 km
Semi-major
6,990.6 km
B*
1.2796e-4
RAAN
337.6237°
Arg perigee
20.2864°
Mean anomaly
339.8791°
Rev number
24,141

§ Raw data

GNOMES-31 52158U 22033B   26263.02869033  .00001048  00000+0  12796-3 0  99912 52158  97.8159 337.6237 0011104  20.2864 339.8791 14.85363152241412

JSON: /api/v1/satellites/52158 · /tle

For live sub-satellite position, see the globe view (requires WebGL).

§ Visibility from observer

Set your observer location to see the next 7 days of passes ≥ 10°. The values pass through the URL so the page stays shareable.

No JS? Fill the form by hand. The geolocation button needs JavaScript.

§ Radio — SatNOGS DB

ModeDescriptionDownlinkUplink
BPSK S-band telemetry 2.282 GHz

1 transmitter · refreshed weekly from db.satnogs.org